Regional Weather Roundup
Issued by NWS

Home | Current Version | Previous Version | Text Only | Print | Product List | Glossary On
Versions: 1 2 3 4 5 6 7 8 9 10 11 12 13 14 15 16 17 18 19 20 21 22 23 24 25 26 27
000
ASUS44 KJAN 280620
RWRMS

MISSISSIPPI HOURLY WEATHER ROUNDUP
NATIONAL WEATHER SERVICE JACKSON MS
100 AM CDT WED SEP 28 2016

NOTE: "FAIR: INDICATES FEW OR NO CLOUDS BELOW 12,000 FEET WITH NO
SIGNIFICANT WEATHER AND/OR OBSTRUCTIONS TO VISIBILITY.

MSZ001>002-007>008-010>013-018>021-025>028-034>036-280700-
NORTHWEST MISSISSIPPI

CITY           SKY/WX    TMP DP  RH WIND       PRES   REMARKS
BATESVILLE     FAIR      49  47  94 CALM      29.97S
CLARKSDALE     PTCLDY    54  54 100 CALM      29.96F
CLEVELAND      FAIR      54  52  92 S3        29.97S
GREENWOOD      CLEAR     55  51  86 CALM      29.97S
6HR MIN TEMP:  55; 6HR MAX TEMP:  67;

GREENVILLE     CLEAR     59  51  75 CALM      29.97F
6HR MIN TEMP:  59; 6HR MAX TEMP:  73;

OXFORD         FAIR      50  46  87 CALM      29.98S
TUNICA         CLEAR     50  46  87 CALM      29.97S FOG
WINONA         FAIR      53  51  95 CALM      29.97S
$$

MSZ003>006-009-014>017-022>024-029>033-037>039-280700-
NORTHEAST MISSISSIPPI

CITY           SKY/WX    TMP DP  RH WIND       PRES   REMARKS
COLUMBUS AFB   CLEAR     58  53  83 CALM      29.95R
6HR MIN TEMP:  58; 6HR MAX TEMP:  78;

CORINTH          N/A     50  48  93 CALM      29.95S
GOLDN TRIANGLE CLEAR     63  46  55 NW3       29.95S
STARKVILLE     FAIR      57  54  88 CALM      29.97S
TUPELO         CLEAR     57  50  77 CALM      29.95F
6HR MIN TEMP:  57; 6HR MAX TEMP:  76;

$$

MSZ040-058-280700-
CENTRAL MISSISSIPPI

CITY           SKY/WX    TMP DP  RH WIND       PRES   REMARKS
JACKSON INTL   PTCLDY    65  59  81 CALM      29.97S
6HR MIN TEMP:  65; 6HR MAX TEMP:  78;

JACKSON HAWKNS PTCLDY    67  59  75 NW3       29.98S
6HR MIN TEMP:  67; 6HR MAX TEMP:  77;

MADISON        FAIR      63  54  72 CALM      29.97F
MERIDIAN KEY   CLOUDY    69  60  73 CALM      29.96S
6HR MIN TEMP:  69; 6HR MAX TEMP:  80;

MERIDIAN NAS   CLOUDY    70  54  56 NW5       29.96R
6HR MIN TEMP:  70; 6HR MAX TEMP:  82;

VICKSBURG VKS  PTCLDY    64  63  94 CALM      29.98R
$$

MSZ059>079-280700-
SOUTH MISSISSIPPI

CITY           SKY/WX    TMP DP  RH WIND       PRES   REMARKS
BROOKHAVEN     FAIR     N/A N/A N/A CALM      29.99S
HATTIESBURG    CLOUDY    74  65  73 CALM      29.97S
6HR MIN TEMP:  73; 6HR MAX TEMP:  81;

LAUREL         FAIR      70  62  77 CALM      29.96S
MCCOMB         CLOUDY    70  65  84 NW3       29.98S
6HR MIN TEMP:  70; 6HR MAX TEMP:  79;

NATCHEZ        CLOUDY    66  63  88 CALM      29.99R
6HR MIN TEMP:  66; 6HR MAX TEMP:  73;

PINE BELT      CLOUDY    70  63  78 CALM      29.97S
6HR MIN TEMP:  70; 6HR MAX TEMP:  79;

$$

MSZ080>082-280700-
COASTAL MISSISSIPPI

CITY           SKY/WX    TMP DP  RH WIND       PRES   REMARKS
BILOXI         CLOUDY    78  75  89 VRB5      29.93F
6HR MIN TEMP:  78; 6HR MAX TEMP:  81;

PASCAGOULA     MOCLDY    72  72 100 CALM      29.93F
6HR MIN TEMP:  71; 6HR MAX TEMP:  76;

GULFPORT       CLOUDY    77  72  84 N7        29.93F
6HR MIN TEMP:  76; 6HR MAX TEMP:  81;

$$

LAZ007>009-015>016-023>026-280700-
NORTHEAST LOUISIANA

CITY           SKY/WX    TMP DP  RH WIND       PRES   REMARKS
BASTROP        FAIR      59  59  98 CALM      30.00S
TALLULAH/VBURG CLEAR     60  58  92 CALM      29.99R
6HR MIN TEMP:  60; 6HR MAX TEMP:  74;

$$




USA.gov is the U.S. government's official web portal to all federal, state and local government web resources and services.